�v������,���r���O(���x),�����t���O,���r���O(���x),�����t���O,��1(���x),�����t���O,��2���x),�����t���O,�������x,�����t���O
1/1/2003 0:00,17.2,1,50.8,1,16.5,1,15.6,1,15.3,1
1/1/2003 0:15,17.2,1,50.9,1,16.5,1,15.6,1,15.3,1
1/1/2003 0:30,17.1,1,50.9,1,16.5,1,15.6,1,15.3,1
1/1/2003 0:45,17.1,1,51.1,1,16.5,1,15.5,1,15.3,1
1/1/2003 1:00,17.1,1,51,1,16.4,1,15.5,1,15.3,1
1/1/2003 1:15,17.2,1,50.8,1,16.4,1,15.5,1,15.3,1
1/1/2003 1:30,17.1,1,51,1,16.4,1,15.5,1,15.3,1
1/1/2003 1:45,17,1,51,1,16.4,1,15.5,1,15.3,1
1/1/2003 2:00,17,1,50.9,1,16.4,1,15.5,1,15.3,1
1/1/2003 2:15,17.1,1,51,1,16.4,1,15.5,1,15.3,1
1/1/2003 2:30,17.1,1,51,1,16.4,1,15.5,1,15.3,1
1/1/2003 2:45,17,1,51,1,16.4,1,15.4,1,15.3,1
1/1/2003 3:00,17,1,51.1,1,16.3,1,15.4,1,15.3,1
1/1/2003 3:15,17,1,51.1,1,16.3,1,15.4,1,15.3,1
1/1/2003 3:30,17.1,1,51,1,16.3,1,15.4,1,15.3,1
1/1/2003 3:45,17.1,1,50.9,1,16.3,1,15.4,1,15.3,1
1/1/2003 4:00,17,1,51,1,16.3,1,15.4,1,15.3,1
1/1/2003 4:15,17,1,51,1,16.3,1,15.4,1,15.3,1
1/1/2003 4:30,17,1,51,1,16.3,1,15.4,1,15.3,1
1/1/2003 4:45,17.1,1,50.7,1,16.2,1,15.4,1,15.3,1
1/1/2003 5:00,17,1,50.9,1,16.2,1,15.3,1,15.3,1
1/1/2003 5:15,16.9,1,50.6,1,16.2,1,15.3,1,15.3,1
1/1/2003 5:30,16.9,1,50.9,1,16.2,1,15.3,1,15.3,1
1/1/2003 5:45,16.9,1,50.9,1,16.2,1,15.3,1,15.3,1
1/1/2003 6:00,17,1,50.7,1,16.2,1,15.3,1,15.3,1
1/1/2003 6:15,16.9,1,50.8,1,16.2,1,15.3,1,15.3,1
1/1/2003 6:30,16.9,1,50.8,1,16.2,1,15.3,1,15.3,1
1/1/2003 6:45,16.9,1,50.9,1,16.2,1,15.3,1,15.3,1
1/1/2003 7:00,16.9,1,50.8,1,16.2,1,15.2,1,15.3,1
1/1/2003 7:15,17,1,50.7,1,16.1,1,15.2,1,15.3,1
1/1/2003 7:30,16.9,1,50.8,1,16.1,1,15.2,1,15.3,1
1/1/2003 7:45,16.8,1,50.8,1,16.1,1,15.2,1,15.3,1
1/1/2003 8:00,16.8,1,51,1,16.1,1,15.2,1,15.3,1
1/1/2003 8:15,16.9,1,50.7,1,16.1,1,15.2,1,15.3,1
1/1/2003 8:30,16.9,1,50.7,1,16.1,1,15.2,1,15.3,1
1/1/2003 8:45,16.8,1,50.8,1,16.1,1,15.2,1,15.3,1
1/1/2003 9:00,16.8,1,50.8,1,16.1,1,15.2,1,15.3,1
1/1/2003 9:15,16.8,1,50.9,1,16.1,1,15.2,1,15.3,1
1/1/2003 9:30,16.9,1,50.7,1,16.1,1,15.2,1,15.3,1
1/1/2003 9:45,16.8,1,50.8,1,16.1,1,15.2,1,15.3,1
1/1/2003 10:00,16.8,1,50.8,1,16.1,1,15.2,1,15.3,1
1/1/2003 10:15,16.7,1,50.9,1,16.1,1,15.2,1,15.3,1
1/1/2003 10:30,16.8,1,50.8,1,16.1,1,15.2,1,15.3,1
1/1/2003 10:45,16.9,1,50.7,1,16.1,1,15.2,1,15.3,1
1/1/2003 11:00,16.8,1,50.9,1,16.1,1,15.3,1,15.3,1
1/1/2003 11:15,16.8,1,50.8,1,16.1,1,15.3,1,15.3,1
1/1/2003 11:30,16.7,1,50.9,1,16.1,1,15.4,1,15.3,1
1/1/2003 11:45,16.8,1,50.9,1,16.1,1,15.4,1,15.3,1
1/1/2003 12:00,16.9,1,50.7,1,16.2,1,15.4,1,15.3,1
1/1/2003 12:15,16.8,1,50.7,1,16.2,1,15.4,1,15.3,1
1/1/2003 12:30,16.7,1,50.8,1,16.2,1,15.5,1,15.3,1
1/1/2003 12:45,16.7,1,50.8,1,16.2,1,15.5,1,15.3,1
1/1/2003 13:00,16.9,1,50.6,1,16.2,1,15.5,1,15.3,1
1/1/2003 13:15,16.9,1,50.6,1,16.3,1,15.7,1,15.3,1
1/1/2003 13:30,16.8,1,50.5,1,16.3,1,15.8,1,15.3,1
1/1/2003 13:45,16.8,1,50.5,1,16.5,1,16.1,1,15.3,1
1/1/2003 14:00,16.9,1,50.7,1,16.7,1,16.4,1,15.3,1
1/1/2003 14:15,16.9,1,51.2,1,16.8,1,16.3,1,15.3,1
1/1/2003 14:30,17,1,50.9,1,17,1,16.2,1,15.3,1
1/1/2003 14:45,16.9,1,51,1,17,1,16.1,1,15.3,1
1/1/2003 15:00,16.9,1,50.7,1,16.8,1,16,1,15.3,1
1/1/2003 15:15,16.9,1,50.5,1,16.7,1,15.9,1,15.3,1
1/1/2003 15:30,17,1,50.2,1,16.5,1,15.8,1,15.2,1
1/1/2003 15:45,16.9,1,50.5,1,16.5,1,15.7,1,15.2,1
1/1/2003 16:00,16.8,1,50.5,1,16.4,1,15.6,1,15.2,1
1/1/2003 16:15,16.8,1,50.5,1,16.3,1,15.6,1,15.2,1
1/1/2003 16:30,16.8,1,50.5,1,16.3,1,15.5,1,15.2,1
1/1/2003 16:45,16.9,1,50.4,1,16.2,1,15.5,1,15.2,1
1/1/2003 17:00,16.8,1,50.5,1,16.2,1,15.4,1,15.2,1
1/1/2003 17:15,16.7,1,50.6,1,16.2,1,15.4,1,15.2,1
1/1/2003 17:30,16.7,1,50.6,1,16.1,1,15.3,1,15.2,1
1/1/2003 17:45,16.8,1,50.5,1,16.1,1,15.3,1,15.2,1
1/1/2003 18:00,16.8,1,50.4,1,16.1,1,15.2,1,15.2,1
1/1/2003 18:15,16.7,1,50.5,1,16.1,1,15.2,1,15.2,1
1/1/2003 18:30,16.6,1,50.6,1,16,1,15.2,1,15.2,1
1/1/2003 18:45,16.6,1,50.4,1,16,1,15.1,1,15.2,1
1/1/2003 19:00,16.7,1,50,1,16,1,15.1,1,15.2,1
1/1/2003 19:15,16.7,1,50.1,1,16,1,15.1,1,15.2,1
1/1/2003 19:30,16.6,1,50.1,1,15.9,1,15.1,1,15.2,1
1/1/2003 19:45,16.5,1,50.1,1,15.9,1,15,1,15.2,1
1/1/2003 20:00,16.6,1,50.1,1,15.9,1,15,1,15.2,1
1/1/2003 20:15,16.7,1,49.8,1,15.9,1,15,1,15.2,1
1/1/2003 20:30,16.6,1,50,1,15.9,1,15,1,15.2,1
1/1/2003 20:45,16.5,1,50.1,1,15.8,1,15,1,15.2,1
1/1/2003 21:00,16.5,1,50.1,1,15.8,1,15,1,15.2,1
1/1/2003 21:15,16.6,1,50.1,1,15.8,1,15,1,15.2,1
1/1/2003 21:30,16.6,1,50,1,15.8,1,15,1,15.2,1
1/1/2003 21:45,16.5,1,50.1,1,15.8,1,15,1,15.2,1
1/1/2003 22:00,16.5,1,50.3,1,15.8,1,15,1,15.2,1
1/1/2003 22:15,16.5,1,50.3,1,15.8,1,15,1,15.2,1
1/1/2003 22:30,16.6,1,50.2,1,15.8,1,15,1,15.2,1
1/1/2003 22:45,16.6,1,50.1,1,15.8,1,15,1,15.2,1
1/1/2003 23:00,16.5,1,50.3,1,15.8,1,14.9,1,15.2,1
1/1/2003 23:15,16.5,1,50.3,1,15.7,1,14.9,1,15.2,1
1/1/2003 23:30,16.5,1,50.3,1,15.7,1,14.9,1,15.2,1
1/1/2003 23:45,16.5,1,50.1,1,15.7,1,14.9,1,15.2,1
1/2/2003 0:00,16.6,1,49.9,1,15.7,1,14.9,1,15.1,1
1/2/2003 0:15,16.7,1,49.8,1,15.7,1,14.9,1,15.1,1
1/2/2003 0:30,16.6,1,50.1,1,15.7,1,14.9,1,15.1,1
1/2/2003 0:45,16.5,1,50.5,1,15.7,1,14.9,1,15.1,1
1/2/2003 1:00,16.5,1,51.1,1,15.7,1,14.9,1,15.1,1
1/2/2003 1:15,16.7,1,51,1,15.7,1,14.9,1,15.1,1
1/2/2003 1:30,16.6,1,50.7,1,15.7,1,14.9,1,15.1,1
1/2/2003 1:45,16.5,1,51,1,15.7,1,14.9,1,15.1,1
1/2/2003 2:00,16.5,1,51.2,1,15.7,1,14.9,1,15.1,1
1/2/2003 2:15,16.6,1,51.4,1,15.7,1,14.9,1,15.1,1
1/2/2003 2:30,16.5,1,51.1,1,15.7,1,14.9,1,15.1,1
1/2/2003 2:45,16.5,1,51.2,1,15.6,1,14.9,1,15.1,1
1/2/2003 3:00,16.4,1,51.5,1,15.6,1,14.9,1,15.1,1
1/2/2003 3:15,16.5,1,51.8,1,15.6,1,14.9,1,15.1,1
1/2/2003 3:30,16.5,1,51.5,1,15.6,1,14.9,1,15.1,1
1/2/2003 3:45,16.4,1,51.5,1,15.6,1,14.8,1,15.1,1
1/2/2003 4:00,16.4,1,51.6,1,15.6,1,14.8,1,15.1,1
1/2/2003 4:15,16.5,1,51.9,1,15.6,1,14.8,1,15.1,1
1/2/2003 4:30,16.5,1,51.6,1,15.6,1,14.8,1,15.1,1
1/2/2003 4:45,16.4,1,51.6,1,15.6,1,14.8,1,15.1,1
1/2/2003 5:00,16.4,1,51.6,1,15.6,1,14.8,1,15.1,1
1/2/2003 5:15,16.4,1,51.8,1,15.6,1,14.8,1,15.1,1
1/2/2003 5:30,16.5,1,51.8,1,15.5,1,14.8,1,15.1,1
1/2/2003 5:45,16.4,1,51.5,1,15.5,1,14.8,1,15.1,1
1/2/2003 6:00,16.4,1,51.6,1,15.5,1,14.8,1,15.1,1
1/2/2003 6:15,16.4,1,51.6,1,15.5,1,14.7,1,15.1,1
1/2/2003 6:30,16.4,1,51.9,1,15.5,1,14.7,1,15,1
1/2/2003 6:45,16.5,1,51.7,1,15.5,1,14.7,1,15,1
1/2/2003 7:00,16.4,1,51.5,1,15.5,1,14.7,1,15,1
1/2/2003 7:15,16.3,1,51.6,1,15.5,1,14.7,1,15,1
1/2/2003 7:30,16.3,1,51.7,1,15.5,1,14.7,1,15,1
1/2/2003 7:45,16.4,1,51.7,1,15.5,1,14.7,1,15,1
1/2/2003 8:00,16.5,1,51.3,1,15.9,1,14.8,1,15,1
1/2/2003 8:15,16.5,1,51.9,1,16.3,1,15.1,1,15,1
1/2/2003 8:30,16.6,1,52.4,1,16.6,1,15.3,1,15,1
1/2/2003 8:45,16.7,1,51.8,1,17,1,15.6,1,15,1
1/2/2003 9:00,17,1,51.4,1,17.4,1,15.9,1,15,1
1/2/2003 9:15,17.1,1,51.3,1,17.8,1,16.2,1,15,1
1/2/2003 9:30,17.2,1,51.1,1,18,1,16.5,1,15,1
1/2/2003 9:45,17.3,1,50.9,1,18.1,1,16.7,1,15,1
1/2/2003 10:00,17.5,1,50.6,1,18.4,1,16.9,1,15,1
1/2/2003 10:15,17.7,1,50.4,1,18.8,1,17,1,15,1
1/2/2003 10:30,17.7,1,50,1,18.7,1,17.2,1,15,1
1/2/2003 10:45,17.8,1,49.7,1,18.7,1,17.3,1,15,1
1/2/2003 11:00,17.9,1,49.6,1,18.8,1,17.4,1,15,1
1/2/2003 11:15,17.8,1,49.7,1,18.7,1,17.4,1,15,1
1/2/2003 11:30,17.8,1,49.7,1,18.6,1,17.4,1,15,1
1/2/2003 11:45,17.8,1,49.4,1,18.5,1,17.6,1,15,1
1/2/2003 12:00,17.8,1,49.3,1,18.4,1,17.6,1,15,1
1/2/2003 12:15,17.9,1,49.4,1,18.4,1,17.7,1,15,1
1/2/2003 12:30,17.9,1,49.3,1,18.4,1,17.8,1,15,1
1/2/2003 12:45,17.9,1,49.1,1,18.4,1,17.9,1,15,1
1/2/2003 13:00,17.9,1,48.9,1,18.4,1,17.8,1,15,1
1/2/2003 13:15,18,1,48.9,1,18.5,1,17.9,1,15,1
1/2/2003 13:30,18,1,48.8,1,18.6,1,18.1,1,15,1
1/2/2003 13:45,18,1,48.7,1,18.6,1,18.2,1,15,1
1/2/2003 14:00,17.9,1,48.7,1,18.6,1,18.2,1,15,1
1/2/2003 14:15,17.9,1,48.9,1,18.6,1,17.8,1,15,1
1/2/2003 14:30,17.8,1,48.8,1,18.5,1,17.5,1,15,1
1/2/2003 14:45,17.7,1,49.2,1,18.3,1,17.2,1,15,1
1/2/2003 15:00,17.6,1,49.4,1,18.1,1,17,1,15,1
1/2/2003 15:15,17.4,1,49.5,1,17.8,1,16.8,1,15,1
1/2/2003 15:30,17.4,1,49.1,1,17.6,1,16.7,1,15,1
1/2/2003 15:45,17.3,1,48.7,1,17.5,1,16.5,1,15,1
1/2/2003 16:00,17.2,1,48.2,1,17.3,1,16.4,1,15,1
1/2/2003 16:15,17.1,1,48.1,1,17.2,1,16.3,1,15,1
1/2/2003 16:30,17.1,1,48.1,1,17.1,1,16.2,1,15,1
1/2/2003 16:45,17.1,1,48.1,1,17,1,16.1,1,15,1
1/2/2003 17:00,17.1,1,48.1,1,16.9,1,16,1,15,1
1/2/2003 17:15,17,1,47.9,1,16.9,1,15.9,1,15,1
1/2/2003 17:30,16.9,1,48.2,1,16.8,1,15.8,1,15,1
1/2/2003 17:45,17,1,48.3,1,16.7,1,15.8,1,15,1
1/2/2003 18:00,17,1,48.1,1,16.7,1,15.7,1,15,1
1/2/2003 18:15,16.9,1,47.7,1,16.6,1,15.7,1,15,1
1/2/2003 18:30,16.8,1,47.7,1,16.6,1,15.6,1,15,1
1/2/2003 18:45,16.8,1,47.9,1,16.5,1,15.6,1,15,1
1/2/2003 19:00,16.9,1,47.9,1,16.5,1,15.5,1,15,1
1/2/2003 19:15,16.8,1,47.8,1,16.4,1,15.5,1,15,1
1/2/2003 19:30,16.8,1,47.7,1,16.4,1,15.4,1,15,1
1/2/2003 19:45,16.7,1,47.8,1,16.4,1,15.4,1,15,1
1/2/2003 20:00,16.8,1,48,1,16.3,1,15.4,1,15,1
1/2/2003 20:15,16.8,1,48.1,1,16.3,1,15.3,1,15.1,1
1/2/2003 20:30,16.7,1,48,1,16.3,1,15.3,1,15.1,1
1/2/2003 20:45,16.7,1,48.1,1,16.2,1,15.2,1,15.1,1
1/2/2003 21:00,16.6,1,48.3,1,16.2,1,15.2,1,15.1,1
1/2/2003 21:15,16.7,1,48.1,1,16.2,1,15.2,1,15.1,1
1/2/2003 21:30,16.7,1,48.2,1,16.2,1,15.2,1,15.1,1
1/2/2003 21:45,16.6,1,48.2,1,16.1,1,15.1,1,15.1,1
1/2/2003 22:00,16.6,1,48,1,16.1,1,15.1,1,15.1,1
1/2/2003 22:15,16.6,1,48,1,16.1,1,15.1,1,15.1,1
1/2/2003 22:30,16.7,1,48,1,16,1,15.1,1,15.1,1
1/2/2003 22:45,16.6,1,47.9,1,16,1,15,1,15.1,1
1/2/2003 23:00,16.5,1,48,1,16,1,15,1,15.1,1
1/2/2003 23:15,16.5,1,48,1,16,1,15,1,15.1,1
1/2/2003 23:30,16.6,1,47.8,1,15.9,1,14.9,1,15.1,1
1/2/2003 23:45,16.5,1,47.7,1,15.9,1,14.9,1,15.1,1
1/3/2003 0:00,16.5,1,47.7,1,15.9,1,14.9,1,15.1,1
1/3/2003 0:15,16.4,1,47.7,1,15.9,1,14.9,1,15.1,1
1/3/2003 0:30,16.5,1,47.6,1,15.8,1,14.9,1,15.1,1
1/3/2003 0:45,16.5,1,47.6,1,15.8,1,14.8,1,15.1,1
1/3/2003 1:00,16.4,1,47.5,1,15.8,1,14.8,1,15.1,1
1/3/2003 1:15,16.4,1,47.5,1,15.8,1,14.8,1,15.1,1
1/3/2003 1:30,16.4,1,47.6,1,15.7,1,14.8,1,15,1
1/3/2003 1:45,16.4,1,47.3,1,15.7,1,14.8,1,15,1
1/3/2003 2:00,16.4,1,47.3,1,15.7,1,14.8,1,15,1
1/3/2003 2:15,16.3,1,47.4,1,15.7,1,14.7,1,15,1
1/3/2003 2:30,16.3,1,47.4,1,15.6,1,14.7,1,15,1
1/3/2003 2:45,16.3,1,47.4,1,15.6,1,14.7,1,15,1
1/3/2003 3:00,16.4,1,47.3,1,15.6,1,14.7,1,15,1
1/3/2003 3:15,16.3,1,47.2,1,15.6,1,14.7,1,15,1
1/3/2003 3:30,16.2,1,47.3,1,15.6,1,14.7,1,15,1
1/3/2003 3:45,16.2,1,47.4,1,15.5,1,14.6,1,15,1
1/3/2003 4:00,16.3,1,47.2,1,15.5,1,14.6,1,15,1
1/3/2003 4:15,16.3,1,47.2,1,15.5,1,14.6,1,15,1
1/3/2003 4:30,16.2,1,47.3,1,15.5,1,14.6,1,15,1
1/3/2003 4:45,16.2,1,47.4,1,15.5,1,14.6,1,15,1
1/3/2003 5:00,16.2,1,47.5,1,15.5,1,14.6,1,15,1
1/3/2003 5:15,16.3,1,47.3,1,15.5,1,14.6,1,15,1
1/3/2003 5:30,16.2,1,47.4,1,15.4,1,14.6,1,15,1
1/3/2003 5:45,16.1,1,47.5,1,15.4,1,14.6,1,15,1
1/3/2003 6:00,16.1,1,47.6,1,15.4,1,14.6,1,15,1
1/3/2003 6:15,16.2,1,47.4,1,15.4,1,14.6,1,15,1
1/3/2003 6:30,16.2,1,47.3,1,15.4,1,14.5,1,15,1
1/3/2003 6:45,16.1,1,47.4,1,15.4,1,14.5,1,15,1
1/3/2003 7:00,16.1,1,47.5,1,15.3,1,14.5,1,15,1
1/3/2003 7:15,16.1,1,47.5,1,15.3,1,14.5,1,14.9,1
1/3/2003 7:30,16.2,1,47.2,1,15.3,1,14.5,1,14.9,1
1/3/2003 7:45,16.1,1,47.3,1,15.3,1,14.5,1,14.9,1
1/3/2003 8:00,16,1,47.4,1,15.3,1,14.5,1,14.9,1
1/3/2003 8:15,16,1,47.5,1,15.3,1,14.5,1,14.9,1
1/3/2003 8:30,16.1,1,47.5,1,15.3,1,14.5,1,14.9,1
1/3/2003 8:45,16.1,1,47.4,1,15.3,1,14.5,1,14.9,1
1/3/2003 9:00,16,1,47.5,1,15.3,1,14.5,1,14.9,1
1/3/2003 9:15,16,1,47.6,1,15.3,1,14.5,1,14.9,1
1/3/2003 9:30,16,1,47.7,1,15.2,1,14.5,1,14.9,1
1/3/2003 9:45,16.1,1,47.4,1,15.2,1,14.5,1,14.9,1
1/3/2003 10:00,16,1,47.5,1,15.2,1,14.5,1,14.9,1
1/3/2003 10:15,15.9,1,47.6,1,15.2,1,14.5,1,14.9,1
1/3/2003 10:30,15.9,1,47.7,1,15.2,1,14.5,1,14.9,1
1/3/2003 10:45,15.9,1,47.6,1,15.2,1,14.5,1,14.9,1
1/3/2003 11:00,16,1,47.4,1,15.2,1,14.5,1,14.9,1
1/3/2003 11:15,15.9,1,47.6,1,15.2,1,14.5,1,14.9,1
1/3/2003 11:30,15.9,1,47.7,1,15.2,1,14.5,1,14.9,1
1/3/2003 11:45,15.9,1,47.8,1,15.2,1,14.5,1,14.9,1
1/3/2003 12:00,15.9,1,47.8,1,15.2,1,14.5,1,14.8,1
1/3/2003 12:15,16,1,47.7,1,15.1,1,14.5,1,14.8,1
1/3/2003 12:30,15.9,1,47.9,1,15.1,1,14.4,1,14.8,1
1/3/2003 12:45,15.8,1,48.1,1,15.1,1,14.4,1,14.8,1
1/3/2003 13:00,15.8,1,48.2,1,15.1,1,14.4,1,14.8,1
1/3/2003 13:15,15.9,1,48,1,15.1,1,14.4,1,14.8,1
1/3/2003 13:30,15.9,1,48.1,1,15.1,1,14.4,1,14.8,1
1/3/2003 13:45,15.8,1,48.3,1,15.1,1,14.4,1,14.8,1
1/3/2003 14:00,15.8,1,48.4,1,15.1,1,14.4,1,14.8,1
1/3/2003 14:15,15.8,1,48.4,1,15.1,1,14.4,1,14.8,1
1/3/2003 14:30,15.9,1,48.2,1,15,1,14.4,1,14.8,1
1/3/2003 14:45,15.8,1,48.5,1,15,1,14.4,1,14.8,1
1/3/2003 15:00,15.8,1,48.6,1,15,1,14.3,1,14.8,1
1/3/2003 15:15,15.7,1,48.6,1,15,1,14.3,1,14.8,1
1/3/2003 15:30,15.8,1,48.5,1,15,1,14.3,1,14.8,1
1/3/2003 15:45,15.8,1,48.5,1,15,1,14.3,1,14.8,1
1/3/2003 16:00,15.7,1,48.6,1,15,1,14.3,1,14.8,1
1/3/2003 16:15,15.7,1,48.7,1,14.9,1,14.3,1,14.7,1
1/3/2003 16:30,15.7,1,48.8,1,14.9,1,14.3,1,14.7,1
1/3/2003 16:45,15.8,1,48.7,1,14.9,1,14.2,1,14.7,1
1/3/2003 17:00,15.7,1,48.7,1,14.9,1,14.2,1,14.7,1
1/3/2003 17:15,15.3,1,45.2,1,14.9,1,13.9,1,11.8,1
1/3/2003 17:30,16.5,1,46,1,15.5,1,14.2,1,11.9,1
1/3/2003 17:45,19.3,1,42.3,1,19.4,1,15,1,10.3,1
1/3/2003 18:00,20.3,1,42.1,1,24.5,1,16.2,1,10.2,1
1/3/2003 18:15,20,1,44,1,25.8,1,16.6,1,10.3,1
1/3/2003 18:30,20,1,44.9,1,25.3,1,16.6,1,10.3,1
1/3/2003 18:45,20,1,45.9,1,25.1,1,16.7,1,10.4,1
1/3/2003 19:00,19.9,1,47.7,1,24.6,1,16.9,1,10.4,1
1/3/2003 19:15,20.1,1,60.3,1,24.5,1,17,1,10.5,1
1/3/2003 19:30,20.4,1,53.2,1,24.7,1,17.4,1,10.5,1
1/3/2003 19:45,20.5,1,54.7,1,24.1,1,17.7,1,10.6,1
1/3/2003 20:00,20.4,1,55.7,1,24.3,1,17.7,1,10.6,1
1/3/2003 20:15,19.4,1,58.3,1,22.8,1,17.6,1,10.7,1
1/3/2003 20:30,19.1,1,63.9,1,21.5,1,17.4,1,10.7,1
1/3/2003 20:45,19,1,63,1,20.8,1,17.2,1,10.8,1
1/3/2003 21:00,18.8,1,64.3,1,20.2,1,17.1,1,10.8,1
1/3/2003 21:15,18.7,1,65.2,1,19.8,1,16.9,1,10.9,1
1/3/2003 21:30,18.6,1,65.1,1,19.5,1,16.9,1,10.9,1
1/3/2003 21:45,18.5,1,64.6,1,19.3,1,16.8,1,11,1
1/3/2003 22:00,20.5,1,58.6,1,20,1,16.8,1,11,1
1/3/2003 22:15,21.7,1,55.2,1,22.8,1,17.3,1,11.1,1
1/3/2003 22:30,20.4,1,58.8,1,22.8,1,17.7,1,11.1,1
1/3/2003 22:45,19.5,1,61.5,1,21.6,1,17.5,1,11.2,1
1/3/2003 23:00,19.3,1,62.2,1,20.1,1,17.4,1,11.2,1
1/3/2003 23:15,19.2,1,63.4,1,19.2,1,17.3,1,11.3,1
1/3/2003 23:30,19,1,64.9,1,18.6,1,17.2,1,11.3,1
1/3/2003 23:45,19,1,63.9,1,18.1,1,17.2,1,11.3,1
1/4/2003 0:00,18.9,1,63.8,1,17.8,1,17.1,1,9.8,1
1/4/2003 0:15,18.8,1,62.5,1,17.6,1,17.1,1,8.8,1
1/4/2003 0:30,18.8,1,62,1,17.4,1,17,1,8.8,1
1/4/2003 0:45,18.7,1,61.8,1,17.2,1,17,1,8.9,1
1/4/2003 1:00,18.7,1,61.4,1,17.1,1,16.9,1,9,1
1/4/2003 1:15,18.6,1,60.9,1,17,1,16.9,1,9,1
1/4/2003 1:30,18.6,1,60.6,1,16.9,1,16.9,1,9.1,1
1/4/2003 1:45,18.6,1,60.4,1,16.9,1,16.8,1,9.1,1
1/4/2003 2:00,18.6,1,60,1,16.8,1,16.8,1,9.2,1
1/4/2003 2:15,18.6,1,59.8,1,16.8,1,16.8,1,9.3,1
1/4/2003 2:30,18.5,1,59.7,1,16.7,1,16.8,1,9.3,1
1/4/2003 2:45,18.6,1,59.6,1,16.7,1,16.8,1,9.4,1
1/4/2003 3:00,18.5,1,59.6,1,16.7,1,16.8,1,9.4,1
1/4/2003 3:15,18.5,1,59.6,1,16.6,1,16.8,1,10.1,1
1/4/2003 3:30,18.5,1,59.3,1,16.5,1,16.8,1,10.1,1
1/4/2003 3:45,18.5,1,59.1,1,16.5,1,16.8,1,10.1,1
1/4/2003 4:00,18.5,1,59.3,1,16.4,1,16.7,1,10.2,1
1/4/2003 4:15,18.5,1,59.1,1,16.4,1,16.7,1,10.3,1
1/4/2003 4:30,18.5,1,58.9,1,16.4,1,16.7,1,10.3,1
1/4/2003 4:45,18.5,1,61.2,1,16.3,1,16.7,1,10.8,1
1/4/2003 5:00,18.2,1,59.2,1,16.3,1,16.6,1,10.9,1
1/4/2003 5:15,18.1,1,58.7,1,16.3,1,16.6,1,10.9,1
1/4/2003 5:30,17.9,1,58.3,1,16.3,1,16.5,1,11,1
1/4/2003 5:45,17.8,1,58.2,1,16.2,1,16.4,1,11,1
1/4/2003 6:00,17.8,1,58.2,1,16.3,1,16.4,1,11.1,1
1/4/2003 6:15,17.6,1,57.7,1,16.3,1,16.3,1,11.1,1
1/4/2003 6:30,17.6,1,57.8,1,16.3,1,16.2,1,11.2,1
1/4/2003 6:45,17.5,1,58.2,1,16.2,1,16.2,1,11.2,1
1/4/2003 7:00,17.5,1,57.8,1,16.2,1,16.1,1,11.3,1
1/4/2003 7:15,17.4,1,58,1,16.2,1,16.1,1,11.3,1
1/4/2003 7:30,17.4,1,58,1,16.2,1,16.1,1,11.3,1
1/4/2003 7:45,17.3,1,57.8,1,16.2,1,16,1,11.4,1
1/4/2003 8:00,17.4,1,70.5,1,16.4,1,16.1,1,11.4,1
1/4/2003 8:15,17.4,1,68.2,1,16.8,1,16.4,1,10.7,1
1/4/2003 8:30,17.3,1,63.7,1,17.3,1,13.6,1,10.8,1
1/4/2003 8:45,17.5,1,59.7,1,17.6,1,14.4,1,10.8,1
1/4/2003 9:00,18.5,1,61.2,1,18.2,1,15.8,1,10.9,1
1/4/2003 9:15,18.5,1,61.2,1,18.7,1,16.6,1,9.3,1
1/4/2003 9:30,18.4,1,63.2,1,18.9,1,17.1,1,9.3,1
1/4/2003 9:45,18.5,1,64.4,1,19.1,1,17.5,1,9.4,1
1/4/2003 10:00,18.7,1,64,1,19.5,1,17.7,1,8.4,1
1/4/2003 10:15,18.7,1,62.5,1,19.9,1,17.8,1,8.4,1
1/4/2003 10:30,18.6,1,59.5,1,19.9,1,17.8,1,8.5,1
1/4/2003 10:45,18.6,1,59.6,1,19.9,1,18,1,8.5,1
1/4/2003 11:00,18.6,1,59.4,1,20,1,18.2,1,8.6,1
1/4/2003 11:15,18.7,1,60.7,1,19.9,1,18.3,1,8.6,1
1/4/2003 11:30,18.6,1,60.8,1,19.7,1,18.3,1,8.9,1
1/4/2003 11:45,18.6,1,59.9,1,19.5,1,18.3,1,8.8,1
1/4/2003 12:00,18.5,1,58.3,1,19.5,1,18.2,1,8.9,1
1/4/2003 12:15,18.5,1,57.8,1,19.4,1,18.3,1,8.9,1
1/4/2003 12:30,18.5,1,58.3,1,19.4,1,18.6,1,9,1
1/4/2003 12:45,18.5,1,58.6,1,19.4,1,18.8,1,9,1
1/4/2003 13:00,18.5,1,58.8,1,19.4,1,18.7,1,9.1,1
1/4/2003 13:15,18.4,1,58.9,1,19.4,1,18.8,1,9.1,1
1/4/2003 13:30,18.4,1,58.9,1,19.4,1,18.8,1,9.2,1
1/4/2003 13:45,18.4,1,58.8,1,19.5,1,19.1,1,9.3,1
1/4/2003 14:00,18.4,1,58.7,1,19.5,1,19.2,1,9.3,1
1/4/2003 14:15,18.4,1,58.7,1,19.4,1,18.9,1,9.4,1
1/4/2003 14:30,18.5,1,57.3,1,19.4,1,18.4,1,9.5,1
1/4/2003 14:45,18.4,1,57.9,1,19.3,1,18.2,1,9.6,1
1/4/2003 15:00,18.5,1,58.9,1,19,1,18.1,1,9.6,1
1/4/2003 15:15,18.4,1,57.9,1,18.8,1,17.9,1,9.4,1
1/4/2003 15:30,18.4,1,58.8,1,18.6,1,17.8,1,9.4,1
1/4/2003 15:45,18.5,1,59.6,1,18.4,1,17.8,1,9.5,1
1/4/2003 16:00,18.5,1,60.1,1,18.3,1,17.7,1,9.5,1
1/4/2003 16:15,18.5,1,60.6,1,18.2,1,17.6,1,9.8,1
1/4/2003 16:30,18.5,1,60.1,1,18.1,1,17.5,1,9.8,1
1/4/2003 16:45,18.5,1,60.4,1,18.1,1,17.5,1,9.9,1
1/4/2003 17:00,18.5,1,60.4,1,18,1,17.4,1,9.9,1
1/4/2003 17:15,18.6,1,70.4,1,18,1,17.4,1,10,1
1/4/2003 17:30,19.3,1,58.5,1,19,1,17.3,1,10,1
1/4/2003 17:45,20.7,1,51,1,25.3,1,17.5,1,10.1,1
1/4/2003 18:00,20.8,1,48.8,1,25.7,1,17.7,1,9.4,1
1/4/2003 18:15,21.2,1,48.5,1,26.2,1,17.9,1,9.4,1
1/4/2003 18:30,21,1,51.1,1,25.2,1,18.2,1,9.5,1
1/4/2003 18:45,21.4,1,53.1,1,25,1,18.4,1,8.3,1
1/4/2003 19:00,21.4,1,55.5,1,25,1,18.5,1,8.3,1
1/4/2003 19:15,22,1,58.8,1,25.3,1,18.8,1,8.4,1
1/4/2003 19:30,22.1,1,57.1,1,25.6,1,19.4,1,8.4,1
1/4/2003 19:45,20.9,1,61.2,1,24.1,1,19.4,1,8.5,1
1/4/2003 20:00,20.4,1,60.5,1,22.5,1,19,1,8.6,1
1/4/2003 20:15,20.2,1,64.1,1,21.6,1,18.7,1,8.6,1
1/4/2003 20:30,19.9,1,67.1,1,20.9,1,18.5,1,8.7,1
1/4/2003 20:45,19.8,1,66.8,1,20.5,1,18.4,1,8.8,1
1/4/2003 21:00,19.7,1,67.3,1,20.1,1,18.2,1,8.8,1
1/4/2003 21:15,19.6,1,67.2,1,19.9,1,18.2,1,8.9,1
1/4/2003 21:30,22.2,1,59.7,1,24.7,1,18.2,1,9,1
1/4/2003 21:45,22.5,1,58.6,1,27.3,1,18.4,1,9.1,1
1/4/2003 22:00,23,1,57,1,27.9,1,18.7,1,9.1,1
1/4/2003 22:15,22.3,1,59.1,1,27.2,1,18.9,1,9.2,1
1/4/2003 22:30,21.9,1,59.4,1,26.3,1,19,1,9.3,1
1/4/2003 22:45,20.9,1,61.7,1,25,1,18.8,1,9.3,1
1/4/2003 23:00,20.5,1,62.7,1,23.1,1,18.6,1,9.4,1
1/4/2003 23:15,20.3,1,63.4,1,21.8,1,18.5,1,9.5,1
1/4/2003 23:30,20.2,1,64.2,1,20.8,1,18.4,1,9.5,1
1/4/2003 23:45,20.1,1,64.8,1,20.1,1,18.3,1,9.5,1
1/5/2003 0:00,20,1,65.2,1,19.7,1,18.3,1,9.5,1
1/5/2003 0:15,20,1,65.1,1,19.4,1,18.2,1,9.5,1
1/5/2003 0:30,19.9,1,65.1,1,19.1,1,18.2,1,9.6,1
1/5/2003 0:45,19.8,1,65.1,1,18.9,1,18.2,1,9.7,1
1/5/2003 1:00,19.8,1,63.9,1,18.7,1,18.1,1,9.3,1
1/5/2003 1:15,19.7,1,63,1,18.6,1,18.1,1,9.4,1
1/5/2003 1:30,19.6,1,62.3,1,18.5,1,18,1,9.4,1
1/5/2003 1:45,19.6,1,61.9,1,18.4,1,17.9,1,9.5,1
1/5/2003 2:00,19.5,1,61.4,1,18.2,1,17.9,1,9.5,1
1/5/2003 2:15,19.4,1,61.9,1,18.2,1,17.9,1,9.6,1
1/5/2003 2:30,19.2,1,61.2,1,18.1,1,17.8,1,9.7,1
1/5/2003 2:45,19,1,60.7,1,18.1,1,17.7,1,9.7,1
1/5/2003 3:00,18.9,1,60.3,1,18.1,1,17.6,1,10.2,1
1/5/2003 3:15,18.8,1,60.2,1,18.2,1,17.5,1,9.8,1
1/5/2003 3:30,18.7,1,59.8,1,18.1,1,17.4,1,9.8,1
1/5/2003 3:45,18.6,1,59.2,1,18.1,1,17.3,1,9.9,1
1/5/2003 4:00,18.5,1,59.4,1,18,1,17.2,1,9.9,1
1/5/2003 4:15,18.4,1,59.4,1,17.9,1,17.2,1,10,1
1/5/2003 4:30,18.4,1,58.5,1,17.9,1,17.1,1,10,1
1/5/2003 4:45,18.3,1,58.6,1,17.9,1,17,1,10.1,1
1/5/2003 5:00,18.2,1,58.7,1,17.8,1,17,1,10.2,1
1/5/2003 5:15,18.2,1,58.4,1,17.8,1,16.9,1,10.2,1
1/5/2003 5:30,18.1,1,58.2,1,17.7,1,16.9,1,10.3,1
1/5/2003 5:45,18.1,1,58.2,1,17.7,1,16.8,1,10.3,1
1/5/2003 6:00,18,1,57.9,1,17.5,1,16.8,1,10.4,1
1/5/2003 6:15,18,1,57.6,1,17.5,1,16.7,1,10.5,1
1/5/2003 6:30,18,1,57.8,1,17.4,1,16.7,1,10.5,1
1/5/2003 6:45,17.9,1,57.6,1,17.4,1,16.7,1,10.6,1
1/5/2003 7:00,17.9,1,57.4,1,17.3,1,16.6,1,10.7,1
1/5/2003 7:15,17.9,1,57.5,1,17.3,1,16.6,1,10.7,1
1/5/2003 7:30,17.9,1,57.2,1,17.3,1,16.6,1,10.8,1
1/5/2003 7:45,17.8,1,57.1,1,17.3,1,16.5,1,10.8,1
1/5/2003 8:00,17.8,1,57.4,1,17.5,1,16.6,1,10.9,1
1/5/2003 8:15,17.9,1,57.1,1,18,1,16.8,1,10.9,1
1/5/2003 8:30,17.9,1,58.5,1,18.5,1,16.9,1,11,1
1/5/2003 8:45,18.3,1,67.8,1,18.9,1,17.4,1,10.5,1
1/5/2003 9:00,18.6,1,66.6,1,19.3,1,17.8,1,10.5,1
1/5/2003 9:15,18.8,1,64.4,1,19.7,1,17.6,1,10.5,1
1/5/2003 9:30,19.1,1,65.6,1,20,1,18.1,1,10.6,1
1/5/2003 9:45,19.2,1,65.2,1,20,1,18.4,1,9.4,1
1/5/2003 10:00,18.8,1,48.9,1,19.8,1,17.7,1,9.4,1
1/5/2003 10:15,19,1,52.4,1,20,1,18.1,1,9.4,1
1/5/2003 10:30,19.1,1,54,1,20.1,1,18.4,1,9.5,1
1/5/2003 10:45,19.2,1,57,1,20.1,1,18.7,1,9.6,1
1/5/2003 11:00,19.4,1,58.2,1,20.2,1,19,1,9.6,1
1/5/2003 11:15,19.4,1,59,1,20.2,1,19.3,1,9.7,1
1/5/2003 11:30,19.4,1,59.8,1,20.1,1,19.4,1,9.7,1
1/5/2003 11:45,19.4,1,60.3,1,20.1,1,19.6,1,9.8,1
1/5/2003 12:00,19.5,1,60.9,1,20.1,1,19.6,1,9.8,1
1/5/2003 12:15,19.5,1,61.4,1,20.1,1,19.7,1,9.9,1
1/5/2003 12:30,19.4,1,62,1,20.1,1,19.9,1,9.9,1
1/5/2003 12:45,19.2,1,49.8,1,19.8,1,19.3,1,10,1
1/5/2003 13:00,19.3,1,53.2,1,19.8,1,19.1,1,9.4,1
1/5/2003 13:15,19.6,1,57,1,20,1,19.5,1,9.4,1
1/5/2003 13:30,19.6,1,57.1,1,20,1,19.6,1,9.4,1
1/5/2003 13:45,19.4,1,57.1,1,19.8,1,19.2,1,9.5,1
1/5/2003 14:00,19.2,1,56.2,1,19.5,1,18.9,1,8.7,1
1/5/2003 14:15,19.1,1,56.3,1,19.3,1,18.6,1,8.7,1
1/5/2003 14:30,18.9,1,56.4,1,19.1,1,18.4,1,8.8,1
1/5/2003 14:45,18.8,1,55.5,1,18.9,1,18.2,1,8.8,1
1/5/2003 15:00,18.7,1,55.5,1,18.7,1,18,1,8.9,1
1/5/2003 15:15,18.5,1,54.8,1,18.6,1,17.9,1,8.9,1
1/5/2003 15:30,18.6,1,51.8,1,24.8,1,17.4,1,9,1
1/5/2003 15:45,20.9,1,48.8,1,26.4,1,17.7,1,9.1,1
1/5/2003 16:00,21.6,1,49,1,25.8,1,18.1,1,9.1,1
1/5/2003 16:15,21.2,1,50.8,1,25.5,1,18.4,1,9.2,1
1/5/2003 16:30,21.7,1,50.3,1,26.5,1,18.6,1,9.3,1
1/5/2003 16:45,20.3,1,54.4,1,24.1,1,18.6,1,9.3,1
1/5/2003 17:00,19.9,1,55.6,1,22.3,1,18.4,1,9.4,1
1/5/2003 17:15,19.8,1,56.5,1,21.2,1,18.3,1,9.4,1
1/5/2003 17:30,19.7,1,57,1,20.3,1,18.2,1,9.5,1
1/5/2003 17:45,19.6,1,57.4,1,19.8,1,18.1,1,9.6,1
1/5/2003 18:00,19.6,1,58,1,19.4,1,18.1,1,9.6,1
1/5/2003 18:15,22.1,1,50.6,1,24.5,1,18.1,1,9,1
1/5/2003 18:30,22.5,1,49.7,1,26.7,1,18.4,1,9,1
1/5/2003 18:45,20.6,1,55.4,1,24.8,1,18.5,1,9.1,1
1/5/2003 19:00,20.3,1,59.7,1,22.7,1,18.4,1,9.2,1
1/5/2003 19:15,20,1,59.3,1,21.6,1,18.3,1,9.2,1
1/5/2003 19:30,20.4,1,64.8,1,20.9,1,18.3,1,9.3,1
1/5/2003 19:45,20.1,1,64.6,1,20.4,1,18.7,1,9.3,1
1/5/2003 20:00,20,1,66.4,1,20.2,1,18.8,1,9.4,1
1/5/2003 20:15,19.9,1,64.2,1,19.9,1,18.6,1,9.5,1
1/5/2003 20:30,19.9,1,69.4,1,19.8,1,18.4,1,9.5,1
1/5/2003 20:45,19.8,1,67.6,1,19.7,1,18.3,1,9.6,1
1/5/2003 21:00,19.8,1,67.7,1,19.6,1,18.3,1,9.6,1
1/5/2003 21:15,21.6,1,63.4,1,22,1,18.2,1,9.7,1
1/5/2003 21:30,22.6,1,59.8,1,26.2,1,18.5,1,9.8,1
1/5/2003 21:45,22.8,1,58.1,1,27.8,1,18.8,1,9.8,1
1/5/2003 22:00,22.4,1,59.3,1,26.9,1,18.9,1,9.9,1
1/5/2003 22:15,22.8,1,57.6,1,26.9,1,19.1,1,9.9,1
1/5/2003 22:30,23.1,1,56.7,1,27,1,19.2,1,10,1
1/5/2003 22:45,23.1,1,56.1,1,27.1,1,19.3,1,10.1,1
1/5/2003 23:00,23.2,1,55.1,1,27.3,1,19.4,1,8.3,1
1/5/2003 23:15,21.6,1,59.3,1,27.3,1,19.2,1,8.3,1
1/5/2003 23:30,21,1,59.9,1,25.1,1,19.1,1,8.4,1
1/5/2003 23:45,20.6,1,60.3,1,23.4,1,18.8,1,8.4,1
1/6/2003 0:00,20.3,1,60.5,1,22.2,1,18.6,1,8.5,1
1/6/2003 0:15,20.1,1,60.1,1,21.4,1,18.5,1,8.6,1
1/6/2003 0:30,19.9,1,60.4,1,20.8,1,18.4,1,8.7,1
1/6/2003 0:45,19.7,1,60.2,1,20.5,1,18.2,1,8.7,1
1/6/2003 1:00,19.5,1,60.4,1,20.1,1,18.1,1,8.8,1